GW0525 Weather Reports


time (UTC)temp
F
wind
direction
speed
knots
gust
knots
rain 1hr
in
rain 24hr
in
rain mn
in
humidity
%
barometer
mb
20260502183101 65 29 20.9 28.7 0.00 0.00 0.00 33 1015.0
20260502181600 64 12 20.0 28.7 0.00 0.00 0.00 34 1014.9
20260502163104 63 28 18.2 26.9 0.00 0.00 0.00 36 1014.7
20260502161559 62 28 20.0 25.2 0.00 0.00 0.00 37 1014.6
20260502160104 62 333 19.1 22.6 0.00 0.00 0.00 38 1014.6
20260502151612 59 45 16.5 23.5 0.00 0.00 0.00 40 1014.5
20260502150110 60 42 16.5 21.7 0.00 0.00 0.00 39 1014.3
20260502123102 51 283 13.0 16.5 0.00 0.00 0.00 46 1013.6
20260502121603 46 288 7.0 12.2 0.00 0.00 0.00 55 1013.8
20260502120114 44 325 8.7 11.3 0.00 0.00 0.00 58 1013.7
20260502114603 44 321 8.7 12.2 0.00 0.00 0.00 57 1013.6
20260502113100 46 327 10.4 12.2 0.00 0.00 0.00 53 1013.8
20260502111603 48 5 6.1 12.2 0.00 0.00 0.00 48 1013.9
20260502110100 46 349 8.7 13.9 0.00 0.00 0.00 51 1013.9
20260502104600 47 213 11.3 13.9 0.00 0.00 0.00 49 1013.3
20260502103114 46 212 8.7 12.2 0.00 0.00 0.00 50 1013.5
20260502101559 45 222 8.7 10.4 0.00 0.00 0.00 52 1013.5
20260502100124 45 221 8.7 12.2 0.00 0.00 0.00 52 1013.6
20260502090112 45 220 11.3 13.9 0.00 0.00 0.00 52 1013.8
20260502064608 45 235 7.0 10.4 0.00 0.00 0.00 45 1015.0
20260502063101 46 217 9.6 14.8 0.00 0.00 0.00 44 1015.2
20260502061605 46 217 11.3 13.0 0.00 0.00 0.00 44 1015.2
20260502054600 45 242 4.3 7.0 0.00 0.00 0.00 45 1015.4
20260502053058 45 232 7.8 10.4 0.00 0.00 0.00 45 1015.6
20260502051702 46 230 5.2 10.4 0.00 0.00 0.00 44 1015.7
20260502044609 47 202 5.2 13.0 0.00 0.00 0.00 41 1016.0
20260502043109 48 218 7.0 11.3 0.00 0.00 0.00 39 1016.0
20260502041558 47 221 6.1 8.7 0.00 0.00 0.00 40 1016.2
20260502040101 47 220 5.2 8.7 0.00 0.00 0.00 40 1016.3
20260502034600 48 202 4.3 7.8 0.00 0.00 0.00 39 1016.4
20260502033101 48 204 3.5 6.1 0.00 0.00 0.00 38 1016.4
20260502031653 50 211 7.0 9.6 0.00 0.00 0.00 36 1016.4
20260502030101 50 213 5.2 7.8 0.00 0.00 0.00 36 1016.4
20260502024559 51 228 6.1 7.8 0.00 0.00 0.00 34 1016.5
20260502023101 53 229 6.1 7.0 0.00 0.00 0.00 33 1016.5
20260502021600 54 213 5.2 7.0 0.00 0.00 0.00 31 1016.4
20260502020113 57 213 5.2 6.1 0.00 0.00 0.00 29 1016.4
20260502014559 59 196 4.3 7.0 0.00 0.00 0.00 26 1016.4
20260502013112 62 196 5.2 8.7 0.00 0.00 0.00 23 1016.4
20260502011559 63 192 7.0 13.0 0.00 0.00 0.00 21 1016.6
20260502010058 64 196 9.6 14.8 0.00 0.00 0.00 20 1016.7
20260502004602 64 207 9.6 13.9 0.00 0.00 0.00 20 1016.6
20260502003101 64 182 6.1 16.5 0.00 0.00 0.00 19 1016.9
20260502001601 64 229 10.4 15.6 0.00 0.00 0.00 19 1017.0
20260501234601 64 251 7.0 14.8 0.00 0.00 0.00 19 1016.9
20260501233112 64 240 9.6 15.6 0.00 0.00 0.00 18 1017.1
20260501231614 64 226 5.2 17.4 0.00 0.00 0.00 18 1017.2
20260501230120 64 228 3.5 9.6 0.00 0.00 0.00 17 1017.4
20260501224603 64 226 8.7 17.4 0.00 0.00 0.00 18 1017.4
20260501223108 65 250 8.7 13.0 0.00 0.00 0.00 18 1017.5
20260501221601 64 291 2.6 16.5 0.00 0.00 0.00 18 1017.6
20260501220100 63 0 6.1 18.2 0.00 0.00 0.00 19 1017.6
20260501214612 63 255 9.6 14.8 0.00 0.00 0.00 20 1017.9
20260501213105 64 198 6.1 15.6 0.00 0.00 0.00 19 1018.1
20260501211601 64 156 10.4 16.5 0.00 0.00 0.00 20 1018.3
20260501210059 63 162 9.6 15.6 0.00 0.00 0.00 20 1018.2
20260501204601 63 271 7.0 15.6 0.00 0.00 0.00 20 1018.5
20260501203102 62 228 3.5 10.4 0.00 0.00 0.00 20 1018.5
20260501201601 62 208 6.1 13.9 0.00 0.00 0.00 21 1018.6
20260501200100 61 254 0.0 10.4 0.00 0.00 0.00 22 1018.7
20260501194603 61 199 10.4 15.6 0.00 0.00 0.00 20 1018.8
20260501193059 62 201 5.2 10.4 0.00 0.00 0.00 22 1018.7
20260501191606 61 140 7.8 19.1 0.00 0.00 0.00 22 1019.0
20260501190129 61 133 2.6 13.9 0.00 0.00 0.00 23 1018.9
20260501184600 61 150 7.0 13.0 0.00 0.00 0.00 23 1019.0